Theta_e
310 310 310 308 308 308 308 309 306 308 308 319 327 330 330 331 330 331 331 333 334 334 334 336 333 335 335 335 333 333 333 332 333 333 334 332 330 327 325 325 324 325 325 326
308 309 308 306 308 309 310 310 310 311 309 328 332 334 330 330 329 330 331 332 334 335 335 334 335 336 336 336 335 335 334 332 335 334 333 330 329 327 327 328 329 330 329 328
305 310 309 305 309 310 310 313 313 309 321 329 328 330 329 330 330 330 332 334 335 336 335 335 335 337 335 336 336 335 334 334 333 332 330 330 330 329 328 329 331 330 330 330
306 308 299 310 317 316 313 314 317 318 324 327 331 334 334 335 333 333 334 334 335 335 334 335 335 335 334 334 334 332 331 331 332 332 331 331 330 330 331 330 330 330 330 331
304 304 307 309 313 312 311 312 322 322 327 330 331 331 330 334 334 335 335 336 335 335 335 333 331 331 330 329 329 328 328 330 330 331 330 330 329 329 331 331 333 329 331 334
307 302 298 310 315 317 313 303 324 327 327 328 327 319 324 330 334 335 336 337 335 335 331 329 330 330 329 328 327 326 327 329 331 331 330 329 330 331 333 334 332 327 329 332
305 302 306 316 317 318 303 310 322 324 325 326 323 330 334 334 335 337 337 337 337 329 326 329 331 331 328 328 327 328 329 330 330 331 331 331 332 332 331 331 332 331 331 334
307 304 300 318 317 310 321 323 324 325 328 329 330 329 332 333 335 335 336 335 329 326 327 331 332 331 331 329 331 330 330 330 330 331 329 329 334 333 333 333 333 332 332 331
311 313 319 322 323 325 325 323 326 328 329 332 328 327 330 333 335 336 335 331 327 326 329 331 332 332 330 331 332 332 331 330 330 332 330 331 333 331 326 331 325 326 323 321
312 316 318 320 324 325 325 326 327 327 326 327 327 327 327 331 333 334 332 328 328 327 328 329 331 331 331 332 333 331 330 330 330 329 329 330 327 326 325 323 322 321 320 320
315 318 319 320 322 325 326 327 324 324 323 321 322 327 325 327 330 332 332 330 329 329 330 330 331 331 331 332 332 329 328 326 326 323 324 326 329 324 323 330 321 322 321 321
313 320 318 322 324 326 325 324 323 322 322 323 322 325 328 328 331 331 331 332 331 331 332 332 332 331 333 333 332 330 324 321 321 321 321 320 321 323 316 313 310 306 305 312
320 321 320 324 325 326 324 324 324 322 323 322 322 323 325 327 331 328 333 334 334 334 334 335 332 332 333 334 333 329 325 323 322 321 322 322 321 320 319 319 309 306 304 303
322 322 319 322 323 326 326 326 324 325 325 325 323 325 324 325 329 329 329 332 334 335 335 334 332 330 332 332 331 329 327 316 324 323 323 323 323 323 322 321 320 322 310 306
322 322 321 324 326 325 326 326 323 323 320 319 320 321 323 325 327 329 331 332 332 333 334 332 330 330 331 328 326 327 326 324 325 325 324 322 324 323 323 323 323 323 326 318
322 323 321 321 324 324 324 323 322 321 320 320 320 320 320 322 323 325 329 331 330 328 331 330 330 331 329 328 327 326 326 321 320 323 323 324 324 323 323 325 326 325 324 326
320 320 321 321 323 323 323 323 323 322 322 322 323 323 323 322 323 323 324 328 330 329 330 329 327 328 329 329 327 326 325 324 322 323 323 323 325 324 325 324 324 325 326 323
324 324 323 324 323 324 323 324 324 323 323 324 324 324 323 323 323 324 326 326 326 326 326 327 328 328 329 328 327 325 324 323 323 323 324 324 325 324 324 322 323 323 325 317
324 324 324 324 326 325 324 324 324 324 326 326 325 325 326 325 325 325 325 325 327 326 328 329 327 327 328 326 325 325 324 324 323 323 324 320 324 321 323 322 319 320 324 325
324 325 325 327 324 324 323 325 325 325 326 328 328 327 326 326 324 323 325 324 326 325 329 326 325 326 328 329 325 326 326 325 325 324 324 324 322 323 323 315 318 322 325 324
326 325 325 325 324 325 325 326 326 325 327 329 328 327 327 325 323 325 323 321 326 327 325 324 327 327 327 326 326 326 326 325 324 325 325 325 323 324 325 325 324 323 322 321
326 326 326 326 326 326 326 327 328 329 329 330 329 328 326 325 324 325 327 326 327 317 324 327 327 324 325 318 326 326 326 327 326 326 327 326 325 323 323 323 321 321 320 320
328 328 329 328 328 328 329 328 330 330 330 330 328 327 326 322 321 320 320 330 328 321 328 326 309 316 316 325 327 328 327 327 327 326 326 325 324 323 321 321 321 319 317 317
329 329 328 329 329 329 328 329 327 329 330 330 329 329 327 321 320 323 325 320 314 316 324 324 317 313 309 327 327 326 324 328 328 325 324 310 322 322 321 318 316 316 315 313
331 330 330 328 327 325 329 330 328 326 328 328 328 329 329 325 322 324 325 326 314 319 326 318 315 313 326 328 327 327 326 326 325 324 324 323 322 320 317 316 315 314 313 313
328 324 324 328 327 326 326 326 325 324 323 323 324 325 326 326 324 324 325 320 326 320 325 327 327 324 328 327 327 326 325 326 326 324 319 320 318 317 316 315 313 312 311 311
330 315 326 327 327 327 327 325 324 323 323 323 323 324 325 326 324 320 317 324 323 325 326 327 326 325 328 328 326 326 327 326 314 321 319 318 317 316 315 313 312 312 311 310
Wind_Speed
19 19 20 19 22 18 22 22 17 19 19 10 12 13 11 11 13 14 14 14 14 13 11 9 7 7 7 7 6 5 5 7 8 9 7 8 7 7 7 7 6 5 6 6
19 18 19 21 23 21 20 16 19 19 17 15 14 14 13 11 9 10 11 11 10 11 12 11 10 10 10 10 10 10 9 8 8 8 7 7 5 6 6 5 5 6 7 7
17 15 18 13 15 20 12 12 14 10 8 7 6 10 12 12 11 11 11 12 11 10 12 11 10 8 8 10 10 8 8 7 7 7 7 6 6 5 6 7 7 8 8 8
14 15 17 6 11 11 7 6 5 5 7 5 9 11 12 15 14 14 13 12 11 8 8 9 8 8 8 8 7 7 7 8 8 7 7 7 6 6 6 6 7 7 7 8
13 13 12 10 7 4 5 3 2 7 6 10 9 10 10 10 9 10 13 11 9 8 10 9 10 8 7 7 6 5 6 5 6 5 4 4 5 4 5 6 6 4 8 7
10 10 13 6 10 3 3 11 8 10 8 9 8 7 11 11 7 11 11 10 11 12 11 10 9 9 7 6 4 4 3 3 4 3 4 5 4 4 4 6 8 8 9 8
12 11 6 11 6 3 8 4 3 5 4 7 3 8 14 18 11 9 10 13 12 13 12 11 10 8 7 6 5 4 3 4 4 4 4 5 5 6 7 8 8 9 9 9
7 9 1 4 7 3 7 2 2 3 4 8 7 5 8 10 9 10 11 12 14 12 12 11 11 9 7 7 6 5 5 5 6 6 7 5 7 7 7 8 9 10 12 10
4 2 3 2 7 6 3 3 3 5 5 9 6 6 4 7 9 10 12 13 13 12 12 12 11 9 8 7 6 7 7 7 7 8 8 8 8 7 9 10 10 10 11 9
4 7 5 3 6 3 1 4 5 8 5 2 6 8 5 5 7 9 12 13 13 12 12 10 10 10 8 8 7 7 7 8 9 10 10 10 9 9 10 9 8 11 8 9
7 6 3 5 4 7 5 5 5 5 3 3 2 9 5 7 7 9 9 10 11 10 10 11 10 10 9 7 6 7 8 9 9 9 10 9 10 9 9 9 7 9 10 10
4 3 5 11 6 10 8 8 6 5 3 2 2 6 7 7 8 9 10 10 10 11 10 11 11 10 9 7 7 8 8 8 8 6 7 7 8 8 16 16 13 12 15 15
6 4 1 2 11 9 8 6 6 4 3 4 1 3 6 7 5 5 8 10 11 11 11 10 10 10 9 8 7 8 8 8 7 8 8 8 8 9 9 10 22 22 22 22
2 0 5 6 8 10 8 7 4 5 3 1 2 5 5 5 6 7 8 9 11 11 11 10 9 10 8 8 8 8 9 11 9 9 9 9 9 9 9 10 11 10 17 25
5 6 10 5 10 12 10 9 9 7 5 5 3 4 4 5 6 8 8 8 9 10 10 10 11 9 7 8 7 10 10 10 10 9 8 8 9 10 11 12 12 12 10 10
10 12 8 6 9 12 12 12 9 7 6 5 5 4 3 2 2 4 5 6 8 9 10 10 10 8 8 9 9 10 11 14 12 10 10 10 10 11 11 10 9 9 10 11
13 10 9 9 10 13 13 11 10 9 7 7 6 6 5 4 3 3 4 6 7 8 8 8 8 9 9 10 12 10 9 10 11 11 12 12 11 13 11 9 10 12 13 7
11 12 11 12 13 13 12 11 11 10 8 7 6 5 4 4 4 4 7 7 8 8 8 8 8 9 10 10 10 9 9 10 10 10 8 8 9 10 9 8 12 10 14 3
13 12 11 13 11 9 9 11 10 8 6 6 7 6 6 5 4 5 7 8 9 9 10 11 10 9 11 11 10 10 11 12 12 12 12 12 10 9 11 6 3 11 12 7
11 14 10 4 9 9 9 10 9 7 8 8 8 7 6 5 4 5 6 8 9 8 6 6 7 9 11 12 12 11 13 14 15 14 11 9 9 12 13 10 9 7 9 10
14 12 13 12 10 8 8 8 11 9 8 9 9 8 7 4 4 5 7 7 8 8 8 7 9 9 9 10 9 12 13 12 10 11 9 10 10 9 13 12 9 7 9 10
9 11 13 10 9 8 7 8 8 8 9 9 8 9 7 5 6 7 7 7 5 3 6 8 9 4 6 7 10 12 12 12 12 9 7 6 7 6 7 8 9 9 8 8
9 8 8 8 9 9 7 7 8 8 8 8 10 9 7 7 8 9 8 9 9 6 8 8 4 2 3 8 10 12 14 11 7 6 7 7 10 10 8 8 8 6 6 8
6 6 7 8 7 7 7 6 7 7 7 9 9 8 7 7 8 8 8 10 12 6 7 9 7 6 7 9 12 11 5 10 4 4 7 4 6 6 6 6 9 8 8 10
6 6 5 5 7 7 7 6 6 6 8 10 9 8 8 8 9 8 5 4 11 7 9 7 13 12 9 11 10 9 6 4 7 7 6 6 6 7 8 6 8 9 8 9
5 7 7 4 5 4 5 7 8 7 9 9 9 10 10 9 9 8 8 11 10 9 11 11 6 7 11 9 8 10 7 4 1 3 6 4 5 5 6 7 8 8 8 8
4 2 5 6 7 7 7 7 7 8 7 8 8 7 8 6 7 8 8 9 7 11 8 10 9 4 7 7 7 7 4 3 6 4 5 4 4 5 4 6 6 7 7 7
Wind_Direction
296 302 301 299 287 283 278 285 281 298 308 110 133 130 132 127 138 151 154 154 144 147 152 142 127 123 119 114 133 139 122 134 135 143 139 148 166 154 167 177 195 201 215 221
268 253 247 253 268 290 271 265 271 266 265 81 97 112 118 142 153 151 142 141 140 145 151 156 153 156 144 146 143 152 149 147 151 140 148 143 158 168 179 199 216 225 246 251
277 282 283 265 256 247 241 287 322 299 122 161 106 125 145 158 176 163 151 159 159 155 160 157 158 153 145 139 148 154 145 131 144 150 155 162 164 188 201 212 227 240 244 246
273 276 262 360 24 344 263 241 272 280 73 65 133 134 157 160 180 154 154 157 155 146 130 140 137 140 128 143 140 150 141 149 155 174 178 174 185 202 228 243 240 247 257 261
249 248 268 170 178 286 278 332 239 108 129 126 132 138 144 154 148 149 142 149 136 156 142 141 135 132 132 124 157 170 150 159 167 189 211 216 224 234 260 283 286 294 258 233
254 273 284 64 80 102 343 286 114 132 156 143 168 218 140 91 151 146 155 131 154 151 143 146 143 161 164 150 175 166 159 177 192 217 246 256 269 274 284 260 252 270 280 289
226 258 289 86 124 142 245 59 101 168 142 146 185 49 138 172 163 159 158 152 144 152 159 157 162 163 172 160 182 186 202 213 221 232 247 258 269 278 282 279 288 283 285 283
276 266 281 55 161 297 68 191 128 124 124 107 97 113 145 158 156 154 156 148 164 168 161 165 169 178 182 184 184 191 201 218 221 229 249 274 226 254 263 273 268 261 255 254
293 46 3 349 67 97 341 111 99 104 119 133 150 133 142 153 157 158 165 163 173 175 171 175 175 189 195 192 195 202 213 227 240 249 257 259 257 263 260 244 251 275 269 267
211 137 174 160 112 117 216 108 126 111 122 152 186 126 152 150 165 168 170 175 186 185 176 182 183 196 210 185 205 221 233 240 245 247 247 251 259 252 239 243 232 255 267 269
256 190 197 182 201 144 164 138 120 115 89 90 282 149 169 161 174 176 179 185 197 197 185 189 189 202 212 213 213 236 249 254 260 260 248 245 226 254 266 275 291 296 299 301
42 10 253 125 160 155 163 170 178 160 132 20 255 192 165 175 183 191 190 195 203 205 201 198 196 207 214 221 224 251 266 253 248 278 287 268 265 251 222 235 248 235 243 249
94 330 114 343 155 181 181 182 181 153 111 148 135 252 185 175 193 203 209 200 208 215 213 201 195 210 204 213 237 252 254 286 282 259 260 257 261 266 272 251 227 231 233 237
336 262 223 214 177 192 197 185 139 127 143 274 231 193 222 199 145 209 214 201 206 210 211 197 205 210 213 219 217 237 248 257 267 263 260 264 264 268 273 279 287 285 238 235
208 237 259 224 197 178 186 164 179 180 170 143 173 206 203 224 221 216 219 220 203 202 196 201 211 221 223 240 228 226 239 251 263 272 283 293 292 283 272 266 266 273 277 256
236 248 240 230 183 189 185 188 189 177 161 145 125 113 126 110 236 219 214 209 203 205 202 215 218 228 237 246 250 255 255 239 247 272 277 271 263 263 268 269 270 271 270 270
260 237 217 232 204 200 195 193 188 183 165 167 151 152 152 165 164 155 209 193 207 237 212 221 233 231 241 256 263 265 268 266 230 247 254 254 254 263 271 265 257 257 263 283
250 245 246 236 211 205 195 208 196 183 178 179 169 185 205 222 252 236 215 231 200 221 240 250 249 253 254 262 263 266 267 269 272 277 283 280 282 283 276 288 279 301 333 242
227 236 253 245 182 185 204 206 203 196 173 185 206 215 231 253 289 277 256 246 235 238 245 249 247 224 256 259 267 270 272 278 281 278 278 272 260 266 260 291 292 240 252 335
237 231 227 174 164 187 195 200 202 209 185 201 223 221 217 236 255 250 239 241 248 257 285 272 230 237 243 248 225 254 263 263 265 272 279 288 283 274 280 269 281 303 340 308
231 205 213 182 187 184 184 193 202 204 203 208 210 211 214 224 219 213 215 236 197 221 234 234 248 254 258 262 256 261 274 287 292 289 290 288 292 298 322 318 335 349 346 357
178 180 197 182 198 205 208 206 205 206 202 203 203 201 207 222 232 228 250 277 305 201 273 266 254 205 284 331 283 283 287 286 284 284 284 290 327 343 338 340 5 9 4 353
161 165 188 189 203 196 199 209 191 201 198 193 202 207 213 260 213 215 220 211 228 239 250 282 322 240 272 276 268 270 268 285 281 314 344 349 343 329 1 9 343 339 315 323
141 179 165 176 180 158 175 168 199 182 200 198 210 213 236 239 224 224 230 236 242 240 276 287 280 220 232 270 271 273 263 258 312 347 334 338 348 11 342 333 337 331 340 323
104 108 124 156 175 186 172 197 234 212 204 223 209 209 239 241 267 277 289 312 159 219 277 284 224 227 239 261 277 266 282 42 23 336 341 358 332 345 348 337 329 352 323 322
166 191 169 214 301 295 219 201 220 236 211 214 220 215 228 207 213 228 241 237 253 264 261 276 286 225 239 270 296 312 321 324 308 60 13 330 0 329 332 343 337 336 342 335
206 254 248 228 232 235 256 272 271 258 238 236 244 222 231 240 225 238 256 274 291 282 260 266 269 252 258 309 314 302 309 56 55 16 296 334 348 319 326 333 331 338 336 347